TimePST,TemperatureF,Dew PointF,Humidity,Sea Level PressureIn,VisibilityMPH,Wind Direction,Wind SpeedMPH,Gust SpeedMPH,PrecipitationIn,Events,Conditions,WindDirDegrees,DateUTC
12:58 AM,35.2,34.3,97,30.24,10.0,South,9.2,-,N/A,,Scattered Clouds,190,2013-02-17 08:58:00
1:58 AM,35.4,34.0,94,30.25,10.0,South,9.2,-,N/A,,Clear,190,2013-02-17 09:58:00
2:58 AM,35.1,34.2,97,30.25,10.0,South,9.2,-,N/A,,Clear,180,2013-02-17 10:58:00
3:58 AM,34.7,34.0,97,30.25,10.0,South,8.1,-,N/A,,Scattered Clouds,180,2013-02-17 11:58:00
4:43 AM,35.6,33.8,93,30.23,10.0,South,8.1,-,N/A,,Mostly Cloudy,190,2013-02-17 12:43:00
4:58 AM,35.4,34.7,97,30.24,10.0,South,9.2,-,N/A,,Overcast,190,2013-02-17 12:58:00
5:58 AM,37.6,35.1,91,30.25,10.0,SSW,8.1,-,N/A,,Overcast,200,2013-02-17 13:58:00
6:58 AM,37.2,35.1,92,30.25,10.0,South,9.2,-,N/A,,Overcast,190,2013-02-17 14:58:00
7:53 AM,33.8,33.8,100,30.24,10.0,South,8.1,-,N/A,,Scattered Clouds,190,2013-02-17 15:53:00
7:58 AM,34.5,33.8,97,30.26,10.0,South,8.1,-,N/A,,Partly Cloudy,190,2013-02-17 15:58:00
8:58 AM,40.1,35.6,84,30.26,10.0,SSW,9.2,-,N/A,,Clear,200,2013-02-17 16:58:00
9:58 AM,41.9,35.8,79,30.27,10.0,SSW,10.4,-,N/A,,Clear,210,2013-02-17 17:58:00
10:58 AM,43.5,35.8,74,30.26,10.0,SW,12.7,-,N/A,,Overcast,220,2013-02-17 18:58:00
11:58 AM,45.1,35.6,69,30.25,10.0,SW,10.4,-,N/A,,Overcast,220,2013-02-17 19:58:00
12:58 PM,46.0,34.2,63,30.24,10.0,SW,10.4,-,N/A,,Overcast,220,2013-02-17 20:58:00
1:38 PM,46.4,35.6,66,30.22,10.0,SSW,6.9,-,N/A,,Overcast,210,2013-02-17 21:38:00
1:58 PM,45.5,33.8,64,30.23,10.0,SSW,5.8,-,N/A,,Overcast,200,2013-02-17 21:58:00
2:58 PM,46.0,34.2,63,30.22,10.0,SW,8.1,-,N/A,,Overcast,220,2013-02-17 22:58:00
3:58 PM,46.2,35.2,66,30.21,10.0,SSW,9.2,-,N/A,,Overcast,210,2013-02-17 23:58:00
4:58 PM,43.5,36.1,75,30.20,10.0,SW,4.6,-,N/A,,Scattered Clouds,220,2013-02-18 00:58:00
5:58 PM,39.4,35.4,86,30.19,10.0,South,2.3,-,N/A,,Scattered Clouds,170,2013-02-18 01:58:00
6:58 PM,41.0,36.9,85,30.18,10.0,SW,4.6,-,N/A,,Mostly Cloudy,230,2013-02-18 02:58:00
7:58 PM,41.5,37.0,84,30.18,10.0,SSW,3.5,-,N/A,,Overcast,200,2013-02-18 03:58:00
8:58 PM,41.2,37.4,86,30.18,10.0,SSW,3.5,-,N/A,,Mostly Cloudy,200,2013-02-18 04:58:00
9:22 PM,41.0,37.4,87,30.16,10.0,SW,5.8,-,N/A,Rain,Light Rain,230,2013-02-18 05:22:00
9:37 PM,41.0,39.2,93,30.15,10.0,WSW,4.6,-,N/A,Rain,Light Rain,240,2013-02-18 05:37:00
9:58 PM,40.1,38.5,94,30.17,10.0,SW,2.3,-,0.02,Rain,Light Rain,230,2013-02-18 05:58:00
10:03 PM,39.2,39.2,100,30.14,10.0,SSW,2.3,-,N/A,Rain,Light Rain,210,2013-02-18 06:03:00
10:04 PM,39.2,39.2,100,30.14,10.0,SSW,2.3,-,N/A,,Mostly Cloudy,210,2013-02-18 06:04:00
10:07 PM,39.2,39.2,100,30.14,10.0,South,2.3,-,N/A,Rain,Light Rain,190,2013-02-18 06:07:00
10:34 PM,39.2,39.2,100,30.14,10.0,South,3.5,-,N/A,,Overcast,170,2013-02-18 06:34:00
10:39 PM,39.2,39.2,100,30.14,10.0,SSE,3.5,-,N/A,,Mostly Cloudy,160,2013-02-18 06:39:00
10:58 PM,38.7,38.5,99,30.15,10.0,South,2.3,-,0.00,,Mostly Cloudy,170,2013-02-18 06:58:00
11:43 PM,39.2,37.4,93,30.12,10.0,SSE,3.5,-,N/A,,Overcast,150,2013-02-18 07:43:00
11:58 PM,38.3,37.9,99,30.13,10.0,SE,4.6,-,N/A,,Overcast,140,2013-02-18 07:58:00